Location: Unspecified
(42.9300°N, 71.1866°W)
Time: 10:11:32
(UTC-04:00)

Envisat - Visible Passes

Search period start: 22 September 2014 00:00
Search period end: 02 October 2014 00:00
Orbit: 765 x 767 km, 98.4° (Epoch: 22 September)

Date Brightness Start Highest point End Pass type
(mag) Time Alt. Az. Time Alt. Az. Time Alt. Az.
22 Sep 4.5 21:44:55 28° N 21:44:55 28° N 21:47:22 10° N visible
23 Sep 4.7 21:08:04 22° NNE 21:08:04 22° NNE 21:10:22 10° N visible
23 Sep 5.5 22:48:18 17° NW 22:48:18 17° NW 22:49:36 10° NNW visible
24 Sep 5.0 20:31:13 13° NE 20:31:13 13° NE 20:32:34 10° NNE visible
24 Sep 5.0 22:11:26 24° NNW 22:11:26 24° NNW 22:13:22 10° NNW visible
25 Sep 4.7 21:34:35 24° N 21:34:35 24° N 21:36:41 10° N visible
25 Sep 6.0 23:14:49 10° NW 23:14:49 10° NW 23:14:52 10° NW visible
26 Sep 4.9 20:57:44 18° NNE 20:57:44 18° NNE 20:59:31 10° NNE visible
26 Sep 5.5 22:37:57 17° NNW 22:37:57 17° NNW 22:39:09 10° NNW visible
27 Sep 5.2 20:20:53 11° NE 20:20:53 11° NE 20:21:10 10° NE visible
27 Sep 5.1 22:01:06 21° N 22:01:06 21° N 22:02:46 10° NNW visible
28 Sep 4.9 21:24:15 20° NNE 21:24:15 20° NNE 21:25:58 10° N visible
28 Sep 6.0 23:04:28 11° NW 23:04:28 11° NW 23:04:36 10° NW visible
29 Sep 5.1 20:47:23 14° NNE 20:47:23 14° NNE 20:48:36 10° NNE visible
29 Sep 5.6 22:27:37 16° NNW 22:27:37 16° NNW 22:28:38 10° NNW visible
30 Sep 5.2 21:50:45 19° N 21:50:45 19° N 21:52:08 10° N visible
01 Oct 5.1 21:13:54 17° NNE 21:13:54 17° NNE 21:15:11 10° N visible
01 Oct 6.0 22:54:07 11° NNW 22:54:07 11° NNW 22:54:14 10° NNW visible
